Regional Weather Roundup
Issued by NWS

Home | Current Version | Previous Version | Graphics & Text | Print | Product List | Glossary On
Versions: 1 2 3 4 5 6 7 8 9 10 11 12 13 14 15 16 17 18 19 20 21 22 23 24 25 26 27 28 29 30 31 32 33 34 35 36 37 38 39 40 41 42 43 44 45 46 47 48 49 50
573
ASUS43 KLMK 300610
RWRKY
KENTUCKY REGIONAL WEATHER ROUNDUP
NATIONAL WEATHER SERVICE LOUISVILLE KY
200 AM EDT MON MAY 30 2016

NOTE "FAIR" INDICATES FEW OR NO CLOUDS BELOW 12,000 FEET
WITH NO SIGNIFICANT WEATHER AND/OR OBSTRUCTIONS TO VISIBILITY.

KYZ001>023-026-027-061>063-070>075-300700-
WESTERN AND SOUTH CENTRAL KENTUCKY

CITY           SKY/WX    TMP DP  RH WIND       PRES   REMARKS
PADUCAH        PTCLDY    64  60  87 CALM      30.04F
HENDERSON      CLEAR     66  61  82 CALM      30.03S
OWENSBORO      PTCLDY    69  68  97 CALM      30.04S
HOPKINSVILLE   CLEAR     71  65  81 CALM      30.05R
BOWLING GREEN  CLOUDY    72  63  73 NW3       30.04S
GLASGOW        MOCLDY    66  66 100 CALM      30.04S
$$

KYZ024-025-028>034-038-045-046-053-300700-
NORTH CENTRAL KENTUCKY

CITY           SKY/WX    TMP DP  RH WIND       PRES   REMARKS
LOUISVILLE/SDF CLOUDY    73  59  61 CALM      30.02S
LOUISVILLE/LOU PTCLDY    70  61  73 CALM      30.02F
FORT KNOX      MOCLDY    64  62  90 CALM      30.02S
$$

KYZ035>037-039>044-047>052-055>060-089>105-300700-
NORTHEAST KENTUCKY

CITY           SKY/WX    TMP DP  RH WIND       PRES   REMARKS
LEXINGTON      CLEAR     70  64  81 W3        30.03F
COVINGTON      MOCLDY    66  64  93 SE5       30.03S
FRANKFORT      PTCLDY    69  62  78 CALM      30.02S
$$

KYZ054-064>069-076>088-106>120-300700-
SOUTHEAST KENTUCKY

CITY           SKY/WX    TMP DP  RH WIND       PRES   REMARKS
JACKSON        PTCLDY    69  62  78 CALM      30.06S
LONDON         CLEAR     66  62  87 CALM      30.05F
SOMERSET       CLEAR     64  64 100 CALM      30.05F
MIDDLESBORO    CLEAR     60  60  99 CALM      30.08F
MONTICELLO     PTCLDY    67  65  93 NE8       30.06F
$$





USA.gov is the U.S. government's official web portal to all federal, state and local government web resources and services.